Edinburgh Airport, United Kingdom

9:06 AM BST on July 28, 2017 (GMT +0100)
Edinburgh Airport

Weather History for EGPH - August, 2014

Change the Weather History Date:

Friday, August 1, 2014

  Actual Average Record
Temperature  
Mean Temperature 60 °F -  
Max Temperature 68 °F 65 °F 73 °F (2013)
Min Temperature 51 °F 50 °F 44 °F (2015)
Degree Days  
Heating Degree Days 6    
Growing Degree Days 10 (Base 50)    
Moisture  
Dew Point 52 °F    
Average Humidity 78    
Maximum Humidity 100    
Minimum Humidity 46    
Precipitation  
Precipitation 0.00 in 0.09 in - ()
Sea Level Pressure  
Sea Level Pressure 29.66 in    
Wind  
Wind Speed 3 mph ()    
Max Wind Speed 10 mph    
Max Gust Speed -    
Visibility 6.2 miles    
Events Fog    
Averages and records for this station are not official NWS values.
T = Trace of Precipitation, MM = Missing Value Source: Averaged Metar Reports

Daily Weather History Graph

Daily Weather History Graph

Search for Another Location

Airport or City:

Trip Planner

Search our weather history database for the weather conditions in past years. The results will help you decide how hot, cold, wet, or windy it might be!

Date:

Astronomy

Aug. 01, 2014 Rise Set
Actual Time 5:17 AM BST 9:20 PM BST
Civil Twilight 4:28 AM BST 10:08 PM BST
Nautical Twilight 3:16 AM BST 11:19 PM BST
Astronomical Twilight 1:52 AM BST 12:47 AM BST
Moon 11:34 AM BST (8/1) 10:47 PM BST (8/1)
Length of Visible Light 17h 40m
Length of Day
16h 03m
Waxing Crescent, 25% of the Moon is Illuminated
Aug 1
Waxing Crescent
Aug 4
First Quarter
Aug 10
Full
Aug 17
Last Quarter
Aug 25
New

Hourly Weather History & Observations

Time (BST) Temp. Dew Point Humidity Pressure Visibility Wind Dir Wind Speed Gust Speed Precip Events Conditions
12:20 AM 57.2 °F 55.4 °F 94% 29.71 in 6.2 mi Calm Calm - N/A   Overcast
12:50 AM 55.4 °F 53.6 °F 94% 29.71 in 6.2 mi Variable 2.3 mph - N/A   Partly Cloudy
1:20 AM 55.4 °F 53.6 °F 94% 29.71 in 6.2 mi Calm Calm - N/A   Partly Cloudy
1:50 AM 57.2 °F 53.6 °F 88% 29.71 in 6.2 mi SW 6.9 mph - N/A   Partly Cloudy
2:20 AM 57.2 °F 53.6 °F 88% 29.71 in - West 4.6 mph - N/A   Clear
2:50 AM 55.4 °F 53.6 °F 94% 29.71 in - WSW 4.6 mph - N/A   Clear
3:20 AM 55.4 °F 53.6 °F 94% 29.68 in 6.2 mi ENE 3.5 mph - N/A   Unknown
3:50 AM 55.4 °F 53.6 °F 94% 29.68 in - East 2.3 mph - N/A   Clear
4:20 AM 51.8 °F 51.8 °F 100% 29.68 in - Variable 2.3 mph - N/A   Clear
4:50 AM 51.8 °F 50.0 °F 94% 29.68 in 6.2 mi Calm Calm - N/A Fog Shallow Fog
5:20 AM 51.8 °F 51.8 °F 100% 29.68 in - WSW 2.3 mph - N/A   Clear
5:50 AM 51.8 °F 51.8 °F 100% 29.68 in - NNE 2.3 mph - N/A   Clear
6:20 AM 53.6 °F 53.6 °F 100% 29.68 in - Variable 3.5 mph - N/A   Clear
6:50 AM 55.4 °F 53.6 °F 94% 29.68 in 6.2 mi WSW 4.6 mph - N/A   Partly Cloudy
7:20 AM 57.2 °F 53.6 °F 88% 29.68 in 6.2 mi West 4.6 mph - N/A   Partly Cloudy
7:50 AM 59.0 °F 53.6 °F 82% 29.68 in - WSW 6.9 mph - N/A   Clear
8:20 AM 59.0 °F 53.6 °F 82% 29.68 in - WSW 6.9 mph - N/A   Clear
8:50 AM 59.0 °F 53.6 °F 82% 29.68 in 6.2 mi WSW 6.9 mph - N/A   Partly Cloudy
9:20 AM 60.8 °F 51.8 °F 72% 29.68 in 6.2 mi SW 10.4 mph - N/A   Partly Cloudy
9:50 AM 60.8 °F 53.6 °F 77% 29.68 in 6.2 mi WSW 8.1 mph - N/A   Partly Cloudy
10:20 AM 60.8 °F 53.6 °F 77% 29.68 in 6.2 mi West 6.9 mph - N/A   Partly Cloudy
10:50 AM 60.8 °F 53.6 °F 77% 29.68 in 6.2 mi WSW 6.9 mph - N/A   Partly Cloudy
11:20 AM 62.6 °F 51.8 °F 68% 29.68 in 6.2 mi WSW 8.1 mph - N/A   Partly Cloudy
11:50 AM 62.6 °F 51.8 °F 68% 29.68 in 6.2 mi SW 6.9 mph - N/A   Partly Cloudy
12:20 PM 62.6 °F 51.8 °F 68% 29.65 in 6.2 mi South 4.6 mph - N/A   Partly Cloudy
12:50 PM 64.4 °F 50.0 °F 59% 29.65 in 6.2 mi Variable 3.5 mph - N/A   Partly Cloudy
1:20 PM 64.4 °F 50.0 °F 59% 29.65 in 6.2 mi Variable 3.5 mph - N/A   Partly Cloudy
1:50 PM 66.2 °F 51.8 °F 60% 29.65 in 6.2 mi SSW 5.8 mph - N/A   Scattered Clouds
2:20 PM 66.2 °F 50.0 °F 56% 29.65 in 6.2 mi Variable 5.8 mph - N/A   Scattered Clouds
2:50 PM 66.2 °F 50.0 °F 56% 29.65 in 6.2 mi WSW 4.6 mph - N/A   Mostly Cloudy
3:20 PM 66.2 °F 48.2 °F 52% 29.65 in 6.2 mi SSW 4.6 mph - N/A   Scattered Clouds
3:50 PM 66.2 °F 50.0 °F 56% 29.65 in 6.2 mi WSW 5.8 mph - N/A   Scattered Clouds
4:20 PM 68.0 °F 50.0 °F 52% 29.62 in 6.2 mi SW 4.6 mph - N/A   Scattered Clouds
4:50 PM 68.0 °F 46.4 °F 46% 29.62 in 6.2 mi West 4.6 mph - N/A   Scattered Clouds
5:20 PM 64.4 °F 50.0 °F 59% 29.62 in 6.2 mi NNE 4.6 mph - N/A   Scattered Clouds
5:50 PM 64.4 °F 51.8 °F 64% 29.62 in 6.2 mi NE 3.5 mph - N/A   Scattered Clouds
6:20 PM 64.4 °F 50.0 °F 59% 29.62 in 6.2 mi Variable 3.5 mph - N/A   Partly Cloudy
6:50 PM 64.4 °F 51.8 °F 64% 29.62 in 6.2 mi Variable 2.3 mph - N/A   Partly Cloudy
7:20 PM 64.4 °F 51.8 °F 64% 29.62 in 6.2 mi NE 3.5 mph - N/A   Partly Cloudy
7:50 PM 64.4 °F 51.8 °F 64% 29.62 in 6.2 mi NE 3.5 mph - N/A   Unknown
8:20 PM 64.4 °F 53.6 °F 68% 29.62 in - NE 4.6 mph - N/A   Clear
8:50 PM 59.0 °F 53.6 °F 82% 29.65 in 6.2 mi NE 3.5 mph - N/A   Partly Cloudy
9:20 PM 57.2 °F 53.6 °F 88% 29.65 in 6.2 mi Calm Calm - N/A   Partly Cloudy
9:50 PM 57.2 °F 53.6 °F 88% 29.65 in - Variable 2.3 mph - N/A   Clear
10:20 PM 53.6 °F 50.0 °F 88% 29.65 in 6.2 mi Calm Calm - N/A   Unknown
10:50 PM 53.6 °F 50.0 °F 88% 29.65 in - Calm Calm - N/A   Clear
11:20 PM 51.8 °F 50.0 °F 94% 29.65 in - Calm Calm - N/A   Clear
11:50 PM 51.8 °F 50.0 °F 94% 29.65 in - Calm Calm - N/A   Clear